Location: *
(58.4167°N, 22.5000°E)
Time: 04:13:18
(UTC+00:00)

EO 1 Delta rocket - Pass Details

Date: 22 September 2019
Orbit: 697 x 1792 km, 95.4° (Epoch: 17 October)

Event Time Altitude Azimuth Distance (km) Brightness Sun altitude
Rises 17:10:16 0° 155° (SSE) 3,802 7.2 -6.0°
Reaches altitude 10° 17:13:01 10° 152° (SSE) 2,702 6.5 -6.3°
Maximum altitude 17:18:48 63° 73° (ENE) 922 4.2 -7.1°
Drops below altitude 10° 17:23:37 10° 353° (N) 2,265 6.7 -7.7°
Sets 17:25:46 0° 351° (N) 3,140 7.5 -8.0°
